Location: Middelsbur
(53.6609°N, 7.5020°E)
Time: 00:23:35
(UTC+00:00)

Aureole 2 Rocket - Pass Details

Date: 06 July 2020
Orbit: 305 x 429 km, 73.9° (Epoch: 03 August)

Event Time Altitude Azimuth Distance (km) Brightness Sun altitude
Rises 23:13:40 0° 321° (NW) 2,125 6.8 -13.6°
Reaches altitude 10° 23:15:55 10° 302° (WNW) 1,306 5.3 -13.7°
Maximum altitude 23:18:01 19° 254° (WSW) 933 3.9 -13.7°
Enters shadow 23:18:52 17° 231° (SW) 1,012 3.8 -13.7°
